GW6137 Weather Reports


time (UTC)temp
C
wind
direction
speed
KPH
gust
KPH
rain 1hr
cm
rain 24hr
cm
rain mn
cm
humidity
%
barometer
mb
20260507034142 8 208 1.6 6.4 0.00 0.00 0.00 70 1014.2
20260507033640 8 225 4.8 4.8 0.00 0.00 0.00 69 1014.3
20260507033137 8 195 3.2 4.8 0.00 0.00 0.00 69 1014.4
20260507032635 8 214 1.6 4.8 0.00 0.00 0.00 70 1014.2
20260507032130 8 206 4.8 6.4 0.00 0.00 0.00 69 1014.2
20260507031627 8 203 4.8 6.4 0.00 0.00 0.00 69 1014.2
20260507031124 8 214 6.4 9.7 0.00 0.00 0.00 69 1014.1
20260507030621 8 201 6.4 9.7 0.00 0.00 0.00 68 1014.2
20260507030118 8 182 6.4 6.4 0.00 0.00 0.00 68 1014.0
20260507025615 8 233 3.2 6.4 0.00 0.00 0.00 68 1014.1
20260507025112 8 240 6.4 9.7 0.00 0.00 0.00 67 1014.3
20260507024610 8 296 3.2 4.8 0.00 0.00 0.00 67 1014.2
20260507024107 8 229 3.2 4.8 0.00 0.00 0.00 66 1014.2
20260507023602 8 208 4.8 9.7 0.00 0.00 0.00 67 1014.0
20260507023100 8 248 9.7 12.9 0.00 0.00 0.00 69 1014.0
20260507022557 8 183 6.4 12.9 0.00 0.00 0.00 69 1013.9
20260507022052 8 220 9.7 11.3 0.00 0.00 0.00 68 1013.9
20260507021549 8 207 9.7 11.3 0.00 0.00 0.00 68 1013.7
20260507021045 8 211 6.4 6.4 0.00 0.00 0.00 71 1013.7
20260507020543 8 242 4.8 6.4 0.00 0.00 0.00 73 1013.8
20260507020039 8 241 3.2 6.4 0.00 0.00 0.00 72 1013.8
20260507015538 8 192 6.4 6.4 0.00 0.00 0.00 73 1013.8
20260507015035 8 182 1.6 3.2 0.00 0.00 0.00 74 1013.8
20260507014531 7 255 4.8 4.8 0.00 0.00 0.00 74 1013.7
20260507014027 7 192 3.2 4.8 0.00 0.00 0.00 74 1013.8
20260507013524 7 186 4.8 6.4 0.00 0.00 0.00 75 1013.7
20260507013021 7 224 1.6 4.8 0.00 0.00 0.00 74 1013.7
20260507012518 7 243 4.8 4.8 0.00 0.00 0.00 73 1013.7
20260507012014 7 234 4.8 6.4 0.00 0.00 0.00 72 1013.6
20260507011512 7 205 3.2 4.8 0.00 0.00 0.00 74 1013.8
20260507011008 7 191 1.6 3.2 0.00 0.00 0.00 75 1013.6
20260507010502 8 163 3.2 6.4 0.00 0.00 0.00 75 1013.5
20260507005959 7 241 4.8 4.8 0.00 0.00 0.00 76 1013.5
20260507005457 7 210 6.4 11.3 0.00 0.00 0.00 75 1013.6
20260507004953 7 198 4.8 12.9 0.00 0.00 0.00 72 1013.5
20260507004450 7 201 11.3 14.5 0.00 0.00 0.00 73 1013.5
20260507003948 7 183 9.7 12.9 0.00 0.00 0.00 75 1013.5
20260507003442 7 239 6.4 9.7 0.00 0.00 0.00 76 1013.3
20260507002937 7 227 6.4 14.5 0.00 0.00 0.00 75 1013.3
20260507002434 7 225 12.9 14.5 0.00 0.00 0.00 75 1013.4
20260507001931 7 243 4.8 11.3 0.00 0.00 0.00 75 1013.4
20260507001428 7 210 6.4 12.9 0.00 0.00 0.00 74 1013.4
20260507000926 7 220 3.2 6.4 0.00 0.00 0.00 77 1013.2
20260507000421 7 150 3.2 11.3 0.00 0.00 0.00 75 1013.4
20260506235916 8 215 1.6 4.8 0.00 0.00 0.00 77 1013.2
20260506235414 8 204 6.4 9.7 0.00 0.00 0.00 76 1013.2
20260506234909 8 189 8.0 9.7 0.00 0.00 0.00 75 1013.3
20260506234408 8 229 8.0 12.9 0.00 0.00 0.00 69 1013.2
20260506233905 8 195 8.0 9.7 0.00 0.00 0.00 69 1013.3
20260506233400 8 166 3.2 6.4 0.00 0.00 0.00 69 1013.0
20260506232858 8 205 8.0 11.3 0.00 0.00 0.00 67 1012.9
20260506232354 8 234 6.4 11.3 0.00 0.00 0.00 67 1012.9
20260506231850 8 183 4.8 11.3 0.00 0.00 0.00 68 1012.8
20260506231348 8 174 6.4 12.9 0.00 0.00 0.00 69 1012.9
20260506230845 8 208 4.8 6.4 0.00 0.00 0.00 70 1012.9
20260506230342 8 262 4.8 9.7 0.00 0.00 0.00 70 1012.9
20260506225838 8 190 6.4 11.3 0.00 0.00 0.00 69 1012.9
20260506225335 8 185 4.8 4.8 0.00 0.00 0.00 69 1012.9
20260506224832 8 187 4.8 9.7 0.00 0.00 0.00 66 1012.8
20260506224329 8 187 6.4 11.3 0.00 0.00 0.00 65 1012.7
20260506223826 8 193 8.0 12.9 0.00 0.00 0.00 64 1012.7
20260506223321 8 216 9.7 12.9 0.00 0.00 0.00 63 1012.7
20260506222819 8 212 8.0 12.9 0.00 0.00 0.00 63 1012.6
20260506222314 8 199 9.7 11.3 0.00 0.00 0.00 64 1012.6
20260506221812 8 223 9.7 12.9 0.00 0.00 0.00 64 1012.6
20260506221309 8 226 8.0 12.9 0.00 0.00 0.00 63 1012.5
20260506220808 8 220 9.7 12.9 0.00 0.00 0.00 64 1012.5
20260506220307 8 212 9.7 14.5 0.00 0.00 0.00 63 1012.5
20260506215804 8 199 6.4 12.9 0.00 0.00 0.00 64 1012.5
20260506215300 8 207 11.3 14.5 0.00 0.00 0.00 64 1012.4
20260506214756 8 227 9.7 12.9 0.00 0.00 0.00 64 1012.3
20260506214253 8 186 9.7 12.9 0.00 0.00 0.00 63 1012.5
20260506213752 8 187 11.3 17.7 0.00 0.00 0.00 64 1012.4
20260506213248 8 172 6.4 11.3 0.00 0.00 0.00 65 1012.4
20260506212746 8 234 9.7 12.9 0.00 0.00 0.00 64 1012.3
20260506212241 8 202 8.0 16.1 0.00 0.00 0.00 63 1012.2
20260506211736 8 226 3.2 12.9 0.00 0.00 0.00 64 1012.1
20260506211233 8 256 9.7 11.3 0.00 0.00 0.00 64 1012.1
20260506210731 9 190 11.3 14.5 0.00 0.00 0.00 62 1012.1
20260506210227 9 223 11.3 12.9 0.00 0.00 0.00 62 1012.0
20260506205724 9 178 6.4 14.5 0.00 0.00 0.00 61 1012.0
20260506205220 9 195 8.0 12.9 0.00 0.00 0.00 61 1012.0
20260506204717 9 242 9.7 12.9 0.00 0.00 0.00 61 1011.8
20260506204214 8 246 3.2 6.4 0.00 0.00 0.00 61 1011.8
20260506203712 9 231 6.4 6.4 0.00 0.00 0.00 59 1011.6
20260506203209 9 172 9.7 11.3 0.00 0.00 0.00 60 1011.8
20260506202702 9 65 3.2 4.8 0.00 0.00 0.00 59 1011.7
20260506202157 9 180 4.8 6.4 0.00 0.00 0.00 63 1011.7
20260506201655 8 134 3.2 11.3 0.00 0.00 0.00 61 1011.7
20260506201151 8 180 8.0 9.7 0.00 0.00 0.00 61 1011.6
20260506200648 9 226 6.4 9.7 0.00 0.00 0.00 61 1011.7
20260506200144 9 162 3.2 4.8 0.00 0.00 0.00 62 1011.5
20260506195641 8 195 3.2 6.4 0.00 0.00 0.00 63 1011.5
20260506195137 8 312 1.6 1.6 0.00 0.00 0.00 64 1011.6
20260506194634 8 285 1.6 1.6 0.00 0.00 0.00 65 1011.6
20260506194130 8 230 4.8 9.7 0.00 0.00 0.00 64 1011.5
20260506193628 8 226 4.8 9.7 0.00 0.00 0.00 64 1011.5
20260506193125 8 141 3.2 4.8 0.00 0.00 0.00 65 1011.4
20260506192622 8 188 4.8 9.7 0.00 0.00 0.00 65 1011.2
20260506192118 8 217 6.4 9.7 0.00 0.00 0.00 64 1011.4
20260506191615 8 274 1.6 3.2 0.00 0.00 0.00 66 1011.5
20260506191110 8 251 3.2 4.8 0.00 0.00 0.00 65 1011.5
20260506190608 8 225 1.6 3.2 0.00 0.00 0.00 63 1011.4
20260506190105 8 250 0.0 3.2 0.00 0.00 0.00 64 1011.6
20260506185602 8 221 1.6 3.2 0.00 0.00 0.00 63 1011.4
20260506185058 8 210 1.6 4.8 0.00 0.00 0.00 67 1011.4
20260506184556 8 168 4.8 6.4 0.00 0.00 0.00 65 1011.6
20260506184053 8 230 4.8 11.3 0.00 0.00 0.00 65 1011.5
20260506183549 8 167 4.8 6.4 0.00 0.00 0.00 65 1011.3
20260506183045 8 199 6.4 9.7 0.00 0.00 0.00 65 1011.2
20260506182543 7 136 1.6 4.8 0.00 0.00 0.00 67 1011.4
20260506182040 7 177 3.2 6.4 0.00 0.00 0.00 66 1011.2
20260506181538 7 201 8.0 9.7 0.00 0.00 0.00 66 1011.4
20260506181035 7 176 6.4 9.7 0.00 0.00 0.00 66 1011.3
20260506180531 7 225 3.2 3.2 0.00 0.00 0.00 66 1011.2
20260506180028 7 71 1.6 4.8 0.00 0.00 0.00 68 1011.2
20260506175525 7 227 3.2 4.8 0.00 0.00 0.00 67 1011.1
20260506175021 7 183 6.4 6.4 0.00 0.00 0.00 68 1011.3
20260506174520 7 220 3.2 9.7 0.00 0.00 0.00 68 1011.2
20260506174015 8 202 4.8 4.8 0.00 0.00 0.00 66 1011.3
20260506173513 8 77 0.0 4.8 0.00 0.00 0.00 69 1011.2
20260506173010 8 107 1.6 3.2 0.00 0.00 0.00 66 1011.3
20260506172508 7 94 1.6 1.6 0.00 0.00 0.00 68 1011.3
20260506172004 7 223 3.2 3.2 0.00 0.00 0.00 69 1011.3
20260506171502 7 182 3.2 4.8 0.00 0.00 0.00 69 1011.4
20260506170959 7 7 0.0 0.0 0.00 0.00 0.00 70 1011.2
20260506170455 7 72 0.0 1.6 0.00 0.00 0.00 67 1011.3
20260506165953 8 55 1.6 3.2 0.00 0.00 0.00 65 1011.2
20260506165452 7 30 3.2 4.8 0.00 0.00 0.00 66 1011.3
20260506164948 7 340 0.0 1.6 0.00 0.00 0.00 68 1011.1
20260506164444 7 21 1.6 3.2 0.00 0.00 0.00 68 1011.2
20260506163942 7 3 0.0 0.0 0.00 0.00 0.00 72 1011.1
20260506163437 7 18 0.0 0.0 0.00 0.00 0.00 71 1011.2
20260506162932 6 342 0.0 1.6 0.00 0.00 0.00 73 1011.2
20260506162430 6 337 0.0 1.6 0.00 0.00 0.00 73 1011.2
20260506161927 6 16 0.0 0.0 0.00 0.00 0.00 74 1011.0
20260506161425 6 340 0.0 3.2 0.00 0.00 0.00 76 1011.1
20260506160922 6 301 3.2 4.8 0.00 0.00 0.00 76 1011.0
20260506160419 6 2 0.0 1.6 0.00 0.00 0.00 79 1011.1
20260506155917 6 26 0.0 0.0 0.00 0.00 0.00 79 1011.1
20260506155414 6 354 0.0 1.6 0.00 0.00 0.00 79 1011.0
20260506153531 5 308 0.0 0.0 0.00 0.00 0.00 86 1011.0
20260506153028 5 308 0.0 0.0 0.00 0.00 0.00 84 1010.8
20260506152525 5 308 0.0 0.0 0.00 0.00 0.00 85 1011.0
20260506152023 5 308 0.0 0.0 0.00 0.00 0.00 86 1011.0
20260506151520 4 308 0.0 0.0 0.00 0.00 0.00 88 1010.8
20260506151018 4 308 0.0 0.0 0.00 0.00 0.00 88 1011.0
20260506150514 4 308 0.0 0.0 0.00 0.00 0.00 89 1010.8
20260506150011 4 308 0.0 0.0 0.00 0.00 0.00 89 1011.0
20260506145507 3 308 0.0 0.0 0.00 0.00 0.00 88 1010.9
20260506145005 3 308 0.0 0.0 0.00 0.00 0.00 89 1010.8
20260506144501 3 308 0.0 0.0 0.00 0.00 0.00 89 1010.9
20260506143959 3 308 0.0 0.0 0.00 0.00 0.00 90 1010.9
20260506143456 3 308 0.0 0.0 0.00 0.00 0.00 90 1011.0
20260506142955 3 308 0.0 0.0 0.00 0.00 0.00 90 1010.8
20260506142452 3 308 0.0 0.0 0.00 0.00 0.00 90 1010.9
20260506141950 3 308 0.0 0.0 0.00 0.00 0.00 89 1010.9
20260506141447 3 308 0.0 0.0 0.00 0.00 0.00 89 1010.8
20260506140946 3 308 0.0 0.0 0.00 0.00 0.00 89 1011.0
20260506140442 3 308 0.0 0.0 0.00 0.00 0.00 89 1010.8
20260506135939 3 308 0.0 0.0 0.00 0.00 0.00 88 1011.0
20260506135437 3 308 0.0 0.0 0.00 0.00 0.00 89 1011.0
20260506134932 3 308 0.0 0.0 0.00 0.00 0.00 89 1011.0
20260506134429 3 308 0.0 0.0 0.00 0.00 0.00 89 1010.9
20260506133926 3 308 0.0 0.0 0.00 0.00 0.00 89 1010.9
20260506133423 3 308 0.0 0.0 0.00 0.00 0.00 86 1011.0
20260506132920 3 308 0.0 0.0 0.00 0.00 0.00 87 1011.0
20260506132417 3 308 0.0 0.0 0.00 0.00 0.00 86 1011.0
20260506131914 4 308 0.0 0.0 0.00 0.00 0.00 87 1010.8
20260506131410 4 308 0.0 0.0 0.00 0.00 0.00 86 1010.9
20260506130908 4 308 0.0 0.0 0.00 0.00 0.00 86 1010.9
20260506130404 4 308 0.0 0.0 0.00 0.00 0.00 86 1010.8
20260506125902 5 308 0.0 0.0 0.00 0.00 0.00 85 1010.8
20260506125400 5 308 0.0 0.0 0.00 0.00 0.00 85 1011.0
20260506124858 5 308 0.0 0.0 0.00 0.00 0.00 85 1010.8
20260506124355 5 308 0.0 0.0 0.00 0.00 0.00 84 1010.9
20260506123853 5 307 0.0 0.0 0.00 0.00 0.00 80 1010.9
20260506123351 5 309 0.0 0.0 0.00 0.00 0.00 82 1010.9
20260506122848 5 310 0.0 0.0 0.00 0.00 0.00 84 1010.8
20260506122344 5 310 0.0 0.0 0.00 0.00 0.00 83 1010.6
20260506121843 5 310 0.0 0.0 0.00 0.00 0.00 80 1010.8
20260506121340 5 309 0.0 0.0 0.00 0.00 0.00 79 1010.8
20260506120837 5 308 0.0 0.0 0.00 0.00 0.00 76 1010.6
20260506120334 5 319 0.0 0.0 0.00 0.00 0.00 74 1010.5
20260506115832 6 280 1.6 1.6 0.00 0.00 0.00 72 1010.7
20260506115330 6 252 1.6 3.2 0.00 0.00 0.00 70 1010.6
20260506114828 6 204 3.2 4.8 0.00 0.00 0.00 69 1010.6
20260506114325 6 218 3.2 4.8 0.00 0.00 0.00 69 1010.4
20260506113823 6 221 1.6 6.4 0.00 0.00 0.00 69 1010.6
20260506113320 6 210 3.2 6.4 0.00 0.00 0.00 71 1010.5
20260506112817 6 225 3.2 4.8 0.00 0.00 0.00 73 1010.2
20260506112314 6 212 3.2 3.2 0.00 0.00 0.00 75 1010.1
20260506111811 6 217 0.0 1.6 0.00 0.00 0.00 73 1010.2
20260506111309 6 183 1.6 4.8 0.00 0.00 0.00 72 1010.0
20260506110807 6 215 3.2 4.8 0.00 0.00 0.00 71 1010.1
20260506110304 6 228 4.8 4.8 0.00 0.00 0.00 71 1009.9
20260506105800 6 213 3.2 6.4 0.00 0.00 0.00 71 1010.0
20260506105257 6 216 4.8 9.7 0.00 0.00 0.00 72 1009.9
20260506104755 6 204 6.4 6.4 0.00 0.00 0.00 72 1009.8
20260506104252 6 170 3.2 3.2 0.00 0.00 0.00 71 1009.6
20260506103749 6 218 1.6 3.2 0.00 0.00 0.00 71 1009.7
20260506103247 6 136 1.6 1.6 0.00 0.00 0.00 70 1009.6
20260506102744 6 252 0.0 1.6 0.00 0.00 0.00 69 1009.5
20260506102243 6 260 0.0 1.6 0.00 0.00 0.00 68 1009.4
20260506101739 6 282 0.0 0.0 0.00 0.00 0.00 67 1009.3
20260506101235 7 155 1.6 3.2 0.00 0.00 0.00 66 1009.1
20260506100733 7 226 1.6 3.2 0.00 0.00 0.00 63 1009.1
20260506100231 6 35 0.0 3.2 0.00 0.00 0.00 64 1009.1
20260506095729 6 52 0.0 0.0 0.00 0.00 0.00 65 1009.3
20260506095226 7 75 0.0 0.0 0.00 0.00 0.00 64 1009.2
20260506094723 7 198 3.2 3.2 0.00 0.00 0.00 64 1009.0
20260506094221 6 227 4.8 4.8 0.00 0.00 0.00 64 1009.0
20260506093720 7 189 3.2 6.4 0.00 0.00 0.00 65 1008.9
20260506093216 7 74 0.0 1.6 0.00 0.00 0.00 61 1008.8
20260506092714 7 41 0.0 1.6 0.00 0.00 0.00 57 1008.8
20260506092211 7 95 1.6 4.8 0.00 0.00 0.00 57 1008.8
20260506091709 7 46 3.2 4.8 0.00 0.00 0.00 57 1008.7
20260506091206 7 43 0.0 1.6 0.00 0.00 0.00 60 1008.8
20260506090704 7 108 3.2 3.2 0.00 0.00 0.00 58 1008.4
20260506090200 7 15 0.0 9.7 0.00 0.00 0.00 55 1008.6
20260506085657 8 54 3.2 9.7 0.00 0.00 0.00 52 1008.5
20260506085153 8 2 0.0 6.4 0.00 0.00 0.00 52 1008.6
20260506084650 8 27 4.8 9.7 0.00 0.00 0.00 52 1008.5
20260506084147 8 19 8.0 12.9 0.00 0.00 0.00 52 1008.4
20260506083643 8 35 0.0 14.5 0.00 0.00 0.00 52 1008.4
20260506083141 8 41 4.8 9.7 0.00 0.00 0.00 52 1008.4
20260506082638 8 81 6.4 11.3 0.00 0.00 0.00 51 1008.3
20260506082133 8 46 3.2 9.7 0.00 0.00 0.00 51 1008.4
20260506081632 8 51 6.4 11.3 0.00 0.00 0.00 51 1008.3
20260506081129 8 83 8.0 9.7 0.00 0.00 0.00 52 1008.3
20260506080627 8 24 6.4 11.3 0.00 0.00 0.00 51 1008.3
20260506080123 8 14 0.0 1.6 0.00 0.00 0.00 52 1008.5
20260506073107 8 40 0.0 3.2 0.00 0.00 0.00 52 1008.2
20260506072603 8 59 1.6 4.8 0.00 0.00 0.00 53 1008.1
20260506072102 8 39 1.6 4.8 0.00 0.00 0.00 54 1008.0
20260506071559 8 220 1.6 4.8 0.00 0.00 0.00 52 1007.9
20260506071056 8 21 0.0 9.7 0.00 0.00 0.00 52 1007.6
20260506070553 8 26 11.3 17.7 0.00 0.00 0.00 51 1007.4
20260506062028 8 32 11.3 17.7 0.00 0.00 0.00 50 1006.9
20260506061529 8 63 6.4 24.1 0.00 0.00 0.00 50 1006.9
20260506061027 9 332 11.3 22.5 0.00 0.00 0.00 49 1006.9
20260506060525 8 11 8.0 17.7 0.00 0.00 0.00 49 1007.0
20260506050954 9 52 11.3 25.7 0.00 0.00 0.00 49 1006.4
20260506050451 9 45 11.3 17.7 0.00 0.00 0.00 50 1006.4
20260506044942 9 8 12.9 16.1 0.00 0.00 0.00 49 1006.2
20260506044440 9 52 12.9 22.5 0.00 0.00 0.00 48 1006.3
20260506043936 10 57 8.0 16.1 0.00 0.00 0.00 48 1006.1
20260506043434 10 10 8.0 17.7 0.00 0.00 0.00 47 1005.9
20260506042931 10 36 8.0 17.7 0.00 0.00 0.00 47 1006.0
20260506042431 10 29 3.2 16.1 0.00 0.00 0.00 46 1006.0
20260506041928 10 55 6.4 12.9 0.00 0.00 0.00 46 1005.9
20260506041426 10 42 11.3 17.7 0.00 0.00 0.00 46 1006.0
20260506040923 10 35 6.4 14.5 0.00 0.00 0.00 45 1006.0
20260506040420 10 311 4.8 16.1 0.00 0.00 0.00 45 1005.8
20260506035916 10 26 16.1 24.1 0.00 0.00 0.00 45 1006.0
20260506035414 10 53 11.3 16.1 0.00 0.00 0.00 46 1005.8
20260506034911 10 3 6.4 14.5 0.00 0.00 0.00 46 1005.8